Location: Bégole
(43.1574°N, 0.3291°E)
Time: 13:12:44
(UTC+00:00)

Cosmos 1606 Rocket - Pass Details

Date: 28 January 2023
Orbit: 602 x 630 km, 82.5° (Epoch: 19 March)

Event Time Altitude Azimuth Distance (km) Brightness Sun altitude
Rises 18:29:01 0° 0° (N) 2,866 6.9 -15.4°
Reaches altitude 10° 18:31:25 10° 10° (N) 1,957 5.9 -15.8°
Maximum altitude 18:35:21 33° 75° (ENE) 1,018 4.1 -16.5°
Enters shadow 18:36:21 29° 103° (ESE) 1,102 4.3 -16.7°
